Theta_e
317 316 316 316 316 316 315 315 315 315 315 315 314 314 314 314 315 315 314 315 315 315 314 315 315 316 316 316 316 315 314 317 322 321 322 318 314 319 316 326 344 349 352 351 351 352 349 351 353 354 354 354 354 354 355 354 354 354 359 355 345 349 352 354 360 357 355 359 360 361 361 359 360 360 359 359 360 362 360 359 359 357 358 360 361 357 356 356
317 316 316 316 316 316 315 315 315 315 314 314 314 314 314 314 314 314 314 314 315 314 314 314 314 316 316 316 317 315 316 320 324 323 321 315 312 315 315 326 344 349 351 351 351 350 348 349 352 354 353 355 355 355 356 355 355 357 360 354 349 355 355 355 358 357 358 358 358 360 360 359 359 359 359 362 363 361 362 362 360 359 359 360 360 357 357 355
316 315 315 315 315 315 315 315 314 314 314 314 314 314 314 314 314 314 314 314 315 314 314 314 314 316 316 316 317 316 318 322 324 325 325 315 312 314 315 328 344 347 350 351 348 348 348 349 353 354 353 356 355 355 357 356 357 357 358 355 354 357 355 356 358 358 359 357 359 359 360 361 360 358 360 363 363 362 364 363 361 362 360 359 359 357 356 355
315 315 315 315 315 315 315 315 314 314 314 314 314 314 314 314 314 314 314 314 314 314 314 314 314 316 316 316 316 316 320 326 323 325 328 319 313 313 316 331 344 346 350 350 346 347 349 349 352 353 355 358 356 356 356 356 357 357 357 357 356 357 357 358 359 358 357 357 359 358 360 362 360 359 360 361 363 362 362 361 361 361 360 359 357 356 356 355
316 316 316 316 316 316 316 315 315 314 314 315 314 314 314 314 314 314 314 313 314 314 314 314 315 316 316 316 316 319 323 322 319 328 329 321 314 312 319 334 343 349 351 347 347 349 348 350 351 353 356 358 358 357 356 355 356 357 358 356 356 357 358 358 357 359 358 357 360 360 362 361 360 361 360 361 363 363 361 358 359 358 358 358 357 356 355 354
316 317 316 316 316 316 316 315 315 314 315 314 314 314 314 314 314 314 314 313 314 314 314 314 315 316 315 315 318 321 325 316 321 329 326 321 315 312 323 337 344 351 351 346 348 348 347 348 349 355 357 357 359 359 357 354 354 358 358 356 357 358 359 358 358 359 358 359 361 361 361 360 360 361 359 361 362 360 359 357 358 358 357 358 358 356 352 351
316 317 316 316 316 316 315 315 315 315 315 314 314 314 313 314 314 314 314 313 314 313 314 315 315 316 314 317 321 323 322 316 325 328 325 321 313 313 333 345 349 352 349 346 347 344 344 346 349 355 358 359 358 356 357 355 355 358 358 356 357 358 360 359 358 358 357 359 361 360 361 361 361 361 360 361 360 358 358 358 359 360 359 359 358 354 351 351
316 316 316 316 316 316 315 315 315 315 315 314 313 313 313 314 314 314 314 313 313 314 314 314 315 315 314 320 326 324 317 320 330 333 326 316 313 325 346 352 352 352 346 344 345 342 342 345 349 353 358 361 357 356 357 357 358 359 358 357 357 359 360 358 357 357 359 359 360 360 362 361 360 360 360 360 359 358 358 358 359 359 360 360 357 355 353 352
316 316 316 316 316 315 315 315 315 315 315 314 313 313 313 313 313 313 314 313 313 314 314 315 315 314 316 322 326 318 320 327 335 339 327 316 326 342 352 352 351 349 343 344 344 341 342 342 346 351 357 358 356 357 358 358 358 358 358 357 358 359 359 359 359 361 361 359 360 361 363 361 358 359 360 360 358 358 358 358 359 359 359 359 358 356 354 352
316 316 316 316 315 314 315 315 315 314 314 314 314 313 313 313 312 312 313 313 313 314 314 315 315 316 320 324 325 316 325 332 338 342 328 323 340 350 350 349 350 347 342 344 342 341 340 341 346 348 353 355 356 357 357 358 356 356 356 356 358 359 359 360 361 363 361 360 359 360 362 360 359 359 360 359 358 358 358 358 358 359 358 358 358 356 356 353
316 316 316 315 315 314 315 315 314 314 314 314 314 313 312 312 312 313 313 312 312 313 314 315 315 318 324 324 323 319 323 329 339 342 330 330 346 350 349 349 348 345 343 343 342 342 340 343 347 348 353 354 354 356 355 355 354 353 353 355 358 357 359 360 363 364 361 361 358 359 362 361 359 358 360 360 358 359 358 360 359 358 358 356 356 356 356 356
316 316 316 315 314 315 315 314 314 315 314 313 313 312 312 312 312 313 312 312 312 312 314 315 315 319 325 324 323 320 320 327 340 341 331 335 348 349 350 349 347 345 343 342 342 342 341 344 346 349 353 351 353 356 352 349 348 348 350 357 361 359 362 362 364 363 361 363 358 358 359 359 361 359 360 360 357 359 359 360 359 358 359 357 355 354 353 356
316 316 315 314 315 315 314 314 315 314 314 314 313 312 313 312 312 312 312 313 312 312 315 315 317 321 325 324 322 318 321 333 341 338 331 339 348 350 351 350 348 346 343 342 342 341 341 342 344 347 349 348 352 353 348 346 345 349 352 357 358 353 357 364 364 362 362 361 358 359 350 349 361 358 359 361 358 360 359 358 359 358 358 356 354 353 354 356
316 315 314 314 315 315 315 315 314 314 313 313 313 312 312 312 312 311 312 313 312 314 317 316 319 323 324 323 322 318 325 339 341 337 336 344 349 349 350 347 344 342 339 340 342 341 340 340 341 342 344 345 349 347 348 349 347 353 353 355 355 340 345 365 363 359 365 359 357 360 345 343 360 357 357 361 359 360 358 357 358 357 356 354 354 354 355 356
315 315 314 314 314 314 314 314 313 313 313 313 312 311 312 312 312 311 311 313 314 316 318 318 321 325 324 323 324 321 329 341 344 341 343 346 346 345 345 342 339 336 333 334 337 338 337 337 337 339 342 343 346 347 351 352 350 355 344 339 346 335 341 365 362 356 362 358 358 358 344 344 358 356 355 359 359 361 358 356 357 358 358 355 354 356 355 356
315 314 314 314 314 314 314 313 313 313 312 312 311 311 312 312 311 311 313 315 315 317 320 325 325 325 325 322 322 324 331 341 345 342 342 342 338 340 343 339 337 334 331 330 330 331 331 333 334 336 340 342 346 349 349 344 343 353 342 330 336 335 336 352 359 357 356 356 359 356 350 350 355 354 354 357 358 360 359 357 359 359 360 357 355 356 355 355
315 314 314 313 313 313 313 313 312 312 312 312 311 311 312 311 312 313 315 317 318 319 323 326 324 325 326 320 318 322 327 335 341 338 338 338 335 340 342 338 336 333 331 330 328 328 328 331 333 336 340 342 346 348 342 333 330 339 342 334 336 339 334 337 351 358 354 355 356 357 357 354 354 354 354 357 358 360 359 358 358 359 359 358 356 355 355 356
315 314 313 312 313 313 313 313 312 312 313 313 312 311 312 312 315 318 319 321 321 322 324 324 324 325 323 319 319 322 324 331 337 334 333 334 334 339 338 335 335 332 329 329 328 327 328 332 337 341 342 343 346 346 337 332 332 332 335 334 335 338 336 334 342 352 353 354 355 356 357 356 356 355 354 357 359 360 360 357 357 359 358 357 357 356 355 356
315 314 314 312 312 313 313 312 313 313 313 313 313 314 316 317 319 322 323 324 325 325 326 325 324 322 320 320 321 323 324 329 333 331 330 330 331 334 333 331 331 329 327 327 326 326 328 332 336 337 340 343 346 346 341 342 343 340 340 340 336 334 336 340 343 347 349 350 355 357 353 355 357 356 357 357 359 360 359 359 358 358 359 358 358 357 356 356
315 315 313 313 312 313 313 312 314 314 314 316 317 319 323 324 326 326 324 324 323 322 323 323 322 320 319 320 322 323 324 326 330 330 329 328 330 330 329 330 328 327 326 326 326 325 326 330 334 336 339 344 345 346 347 346 347 348 347 344 340 334 334 343 345 346 349 346 349 356 353 356 358 356 359 358 359 361 358 359 359 359 359 358 358 356 356 357
316 314 314 313 313 313 312 313 315 314 315 317 318 323 325 324 326 326 324 324 323 322 321 321 322 321 320 322 323 323 324 325 327 328 328 328 329 330 329 330 328 327 327 326 326 324 326 328 331 337 339 343 345 346 346 346 348 348 346 341 337 333 333 342 348 347 350 346 346 356 355 355 360 356 358 359 359 360 358 359 359 358 360 358 358 356 356 356
316 315 314 313 313 313 313 314 315 315 316 316 318 322 321 321 322 321 322 324 324 323 322 321 322 322 322 323 323 323 323 326 326 327 328 327 327 330 330 330 329 329 328 326 326 325 326 328 332 335 335 339 342 344 345 346 348 346 344 337 330 332 334 340 352 353 350 346 347 356 353 352 359 357 356 359 359 359 358 358 358 357 358 359 358 356 356 355
316 316 314 313 313 313 314 315 316 315 315 318 320 321 320 320 320 319 320 324 324 323 322 323 322 322 321 323 323 323 323 328 328 327 328 326 327 330 331 331 330 330 328 326 327 325 323 329 336 335 333 337 340 342 344 344 345 344 341 331 326 333 332 329 343 356 353 349 350 354 352 353 360 357 356 358 358 360 358 358 359 356 357 358 357 355 355 354
317 315 314 314 314 314 315 314 315 317 316 318 320 320 321 320 320 321 321 324 325 324 323 324 323 322 322 324 324 323 323 326 328 328 327 326 327 328 330 331 330 329 328 327 328 327 327 334 341 338 336 338 339 342 345 342 339 340 341 333 328 333 333 329 338 350 349 350 358 355 341 345 358 358 356 358 358 359 357 358 360 358 358 359 356 354 354 354
317 315 314 314 314 315 314 314 318 319 318 320 320 320 321 321 322 321 322 326 325 324 324 324 324 324 324 324 324 323 324 324 326 329 327 325 326 327 329 330 328 328 327 326 327 327 329 336 340 341 341 340 342 343 344 340 333 333 339 338 334 336 337 338 341 343 335 335 353 351 329 333 354 357 356 358 358 359 357 358 360 358 358 357 358 355 353 354
317 315 314 313 315 315 314 319 322 319 320 322 323 322 321 322 322 320 324 326 322 322 326 325 324 325 324 324 325 324 321 321 326 329 327 327 326 327 329 328 328 328 327 327 327 327 328 333 338 340 341 342 343 341 342 343 331 326 335 339 339 339 339 340 340 335 326 327 347 352 331 329 344 352 357 357 357 360 357 357 360 359 358 356 357 355 354 354
317 316 314 313 315 314 316 322 321 319 322 323 323 322 322 322 321 321 324 321 316 321 326 324 324 325 324 325 325 322 320 322 327 328 327 327 327 329 329 329 328 326 328 328 322 325 329 332 335 338 339 340 340 339 342 342 331 327 337 339 339 341 341 342 339 333 330 333 342 350 341 329 332 346 357 356 356 360 359 358 360 360 359 356 355 354 354 354
318 317 314 314 315 314 317 320 320 322 323 323 322 321 322 321 320 323 324 317 317 323 323 322 322 323 324 325 325 324 323 323 325 327 328 327 328 330 328 330 331 327 330 326 319 325 333 333 336 338 338 339 338 339 340 340 334 334 339 339 339 344 345 344 339 332 336 336 329 335 342 330 328 346 359 356 355 358 359 359 359 361 360 357 355 354 354 354
319 318 316 315 315 315 315 314 319 323 322 322 322 321 322 321 321 327 324 318 320 322 322 321 322 323 325 324 324 326 326 324 324 327 329 328 329 333 331 331 333 330 332 328 323 329 337 335 338 339 339 339 339 340 339 338 338 337 339 338 338 344 346 347 340 329 332 333 324 326 334 327 326 341 351 351 351 353 358 357 357 360 361 359 356 354 353 353
320 319 318 316 316 315 314 314 318 320 321 321 321 321 322 321 324 325 319 317 320 321 320 321 322 324 325 324 326 327 325 326 328 329 329 329 330 334 334 333 334 333 334 332 328 330 333 336 339 339 339 339 339 339 337 337 338 337 338 337 336 339 344 344 339 331 328 327 323 323 330 329 327 335 345 350 350 351 357 356 355 360 361 360 356 353 354 352
320 320 319 318 316 316 318 320 319 319 320 320 321 322 322 325 327 321 316 320 321 319 320 321 321 323 325 326 327 326 325 328 330 328 328 330 330 332 334 333 334 333 333 332 331 331 332 334 337 338 338 338 338 338 338 338 337 337 338 334 329 328 332 330 329 331 326 321 322 325 331 330 325 330 342 350 351 348 354 357 356 358 359 359 355 353 353 352
320 320 320 318 317 317 320 322 320 318 319 320 322 324 324 325 323 316 316 320 318 318 321 322 321 323 325 327 327 326 327 329 329 327 327 329 330 333 333 333 333 328 323 324 327 329 332 334 336 336 337 339 337 335 336 337 337 338 334 327 322 321 322 321 319 322 321 319 324 330 331 328 325 331 342 348 348 347 351 356 356 356 357 356 354 352 351 351
321 321 320 319 317 317 319 321 320 318 319 321 323 326 327 323 319 318 319 319 317 319 322 322 321 322 324 325 326 326 327 329 329 327 327 328 330 332 332 334 336 329 323 323 321 321 325 330 334 335 336 338 337 331 327 330 334 335 329 322 320 321 321 321 318 318 319 318 324 334 334 326 324 333 343 344 344 347 352 354 355 355 356 354 353 352 351 351
321 322 321 320 319 318 318 320 320 319 320 324 326 329 327 320 320 323 322 321 321 320 321 322 321 322 324 325 325 326 326 327 329 329 329 328 327 329 330 333 336 335 333 328 322 320 318 321 328 333 333 333 336 333 330 333 334 333 335 330 321 319 321 321 318 317 319 317 320 331 332 321 320 334 344 343 343 345 350 353 355 355 354 353 353 353 352 351
322 323 322 322 321 320 320 320 320 319 321 325 328 328 323 317 319 323 323 324 324 322 321 321 322 321 322 324 325 326 325 324 327 331 330 329 327 326 329 331 333 337 334 325 323 324 318 317 328 333 331 331 333 333 335 334 330 332 337 330 321 322 324 319 317 318 318 318 320 323 324 323 329 342 345 345 345 344 350 354 355 354 355 354 353 353 351 349
324 324 324 325 324 322 322 320 319 320 322 326 325 323 322 322 324 325 327 327 325 323 320 319 321 320 317 321 324 325 325 323 326 328 329 330 329 328 329 330 331 334 333 327 325 324 316 318 330 332 329 332 331 331 334 330 327 330 327 323 326 331 327 317 316 319 318 319 321 318 318 323 331 339 346 350 348 346 351 353 354 355 356 354 353 353 351 350
326 327 327 327 324 321 322 320 320 321 324 325 323 322 325 328 328 328 330 328 324 324 320 316 318 317 314 316 320 324 325 323 324 323 323 326 327 328 331 330 330 332 333 331 328 328 321 318 328 332 328 330 330 329 332 331 329 328 321 323 331 331 330 322 317 319 319 318 320 317 316 319 320 327 342 352 350 348 351 351 352 354 355 355 354 352 352 352
324 329 329 325 320 320 321 320 321 324 324 324 326 328 329 329 328 328 328 327 324 324 321 316 317 318 315 313 316 323 324 319 320 320 320 321 322 325 329 329 330 332 332 332 329 332 329 318 323 331 328 329 331 328 327 329 331 329 325 330 329 321 321 322 318 319 319 319 320 317 316 318 317 322 334 344 349 350 351 351 351 353 354 354 353 351 352 352
324 330 329 324 320 320 321 320 322 325 323 324 329 330 329 328 328 328 328 328 326 324 322 319 318 319 317 315 316 321 321 318 319 318 317 319 320 323 327 327 329 331 331 333 331 332 332 321 318 327 329 328 329 326 321 323 328 330 328 331 329 323 320 319 319 319 318 319 320 318 317 318 321 328 334 341 349 351 350 351 350 352 353 352 351 351 351 351
327 329 328 323 321 320 320 322 324 325 324 327 329 329 328 328 328 328 327 328 327 325 324 323 321 319 318 318 317 319 320 319 320 318 317 320 320 322 328 328 328 331 330 332 333 331 333 325 317 324 329 324 322 325 324 323 325 324 322 321 323 324 324 322 320 318 318 319 319 321 319 317 325 339 341 342 348 350 350 351 350 349 350 350 349 350 351 351
327 328 327 324 322 320 321 326 327 326 328 329 329 329 329 329 329 329 327 327 328 327 326 326 325 322 320 320 319 320 320 320 320 319 319 320 319 320 326 328 329 331 329 331 333 331 330 327 320 319 320 317 320 329 330 328 328 326 322 321 321 322 320 319 319 318 319 318 317 320 318 318 329 340 341 342 348 349 349 350 348 347 348 348 349 349 350 351
328 329 327 324 322 322 324 329 329 328 329 329 329 329 329 330 329 328 327 328 327 328 327 326 325 325 324 323 323 322 320 319 319 319 319 320 321 321 324 328 330 330 330 330 331 331 332 330 322 318 320 323 327 331 330 328 330 329 327 327 327 324 318 314 315 317 318 318 318 318 315 321 335 342 340 343 349 349 348 348 346 345 345 347 347 346 349 350
328 328 326 323 322 323 327 329 328 328 329 329 329 328 328 329 328 328 328 328 328 327 327 326 325 327 327 327 327 325 322 320 320 320 320 321 322 322 322 325 328 329 330 329 329 331 332 329 321 317 322 326 329 331 330 329 329 326 326 328 327 324 323 321 321 321 318 316 316 316 314 321 335 344 341 343 349 350 347 346 346 343 343 346 346 346 350 350
327 327 325 325 324 324 328 330 329 330 330 330 330 329 329 328 328 329 329 328 328 328 328 327 327 327 329 330 329 326 323 322 320 321 323 323 323 325 324 322 324 326 326 327 330 329 326 325 322 316 317 318 320 323 323 323 325 324 325 328 327 326 328 327 326 325 319 314 315 316 314 319 332 344 341 340 348 351 349 346 345 344 343 344 345 347 350 351
326 326 325 326 326 326 328 328 329 331 331 331 331 329 329 328 327 327 328 328 328 328 330 329 328 329 330 331 330 328 328 326 324 325 327 328 328 329 328 324 325 325 325 332 335 328 324 328 325 317 314 313 313 316 316 318 322 323 324 326 326 327 327 324 320 317 315 317 319 316 313 320 333 340 337 338 345 350 352 349 345 345 345 345 347 348 349 352
328 329 327 327 326 327 327 326 328 330 331 332 332 330 329 330 328 326 327 328 328 328 330 330 330 331 331 331 332 331 331 331 330 329 331 331 330 330 329 328 328 327 329 336 337 328 327 331 329 322 317 316 315 318 323 324 320 318 321 323 324 326 328 326 318 313 316 319 317 318 320 321 328 334 336 338 342 348 353 351 347 347 346 346 348 349 350 353
328 329 329 328 328 327 327 327 328 330 331 332 332 331 330 329 329 328 327 328 328 328 329 329 330 331 331 331 332 330 331 333 332 331 332 331 331 330 329 329 330 332 336 335 331 330 328 325 325 326 323 323 324 325 327 327 321 319 320 320 323 326 329 326 317 318 325 317 313 328 337 325 325 334 336 339 342 345 350 351 351 351 349 347 350 351 352 354
327 328 326 327 329 329 328 328 328 329 330 331 331 330 330 330 330 330 329 328 328 329 330 330 330 330 331 332 331 330 331 332 331 332 332 331 331 331 330 329 331 335 338 333 328 332 328 321 323 326 323 325 328 327 327 327 324 324 323 322 325 327 327 325 322 325 330 318 316 335 342 330 331 335 336 341 343 343 347 352 352 353 352 351 351 352 352 354
326 326 324 325 327 328 328 326 327 329 330 332 332 330 330 331 330 329 328 329 330 329 329 331 330 329 330 332 332 333 332 329 328 332 334 332 333 332 331 331 329 332 334 331 329 331 326 323 327 327 321 323 327 326 327 326 323 324 326 327 330 328 328 329 328 332 334 326 327 337 336 332 335 335 338 343 342 341 348 351 351 353 354 354 355 354 352 353
326 327 325 325 326 327 326 325 327 329 329 331 332 331 330 330 330 329 328 329 331 330 329 330 330 329 330 332 331 332 332 329 330 333 332 332 333 332 331 331 329 330 330 328 330 330 324 323 329 326 318 318 323 325 325 324 323 324 327 331 331 327 327 329 329 334 334 330 335 336 330 332 338 340 344 346 342 344 350 351 352 352 353 356 357 355 354 355
325 326 325 327 328 328 326 325 327 328 329 330 331 331 330 330 329 329 328 327 328 329 328 328 329 329 330 332 331 330 329 328 330 330 330 330 331 330 330 330 329 330 331 329 329 330 326 324 327 324 314 313 320 322 321 325 326 322 323 328 329 326 326 329 332 337 335 331 332 328 322 329 342 348 349 347 343 346 350 351 352 351 351 354 356 355 355 355
324 325 325 327 328 327 325 325 325 327 329 330 330 330 330 329 328 328 329 328 326 327 327 327 328 330 331 332 330 328 327 327 328 328 327 328 328 328 328 329 328 329 331 331 330 332 331 326 324 321 313 311 318 321 321 323 319 315 319 328 332 333 333 335 338 345 346 341 334 328 329 339 351 352 350 347 343 345 349 349 348 350 351 352 353 353 353 354
Wind_Speed
14 14 13 13 14 14 14 14 14 14 14 15 15 15 15 14 14 13 13 13 13 13 13 12 13 12 12 12 13 13 13 10 8 7 10 11 11 9 12 20 25 29 27 22 20 18 16 12 10 10 7 4 3 2 3 3 2 3 2 1 2 3 4 5 5 6 6 5 5 3 4 6 4 1 2 3 4 4 5 5 4 6 4 6 13 20 22 22
13 14 13 13 14 14 15 15 15 15 15 15 15 15 14 14 14 13 13 13 13 13 12 13 12 12 12 12 12 12 12 10 10 11 14 12 11 14 16 22 28 31 26 22 21 20 16 12 12 10 6 3 3 3 2 2 2 3 2 1 3 5 4 3 5 5 6 7 7 6 5 5 5 2 2 4 5 6 6 6 7 7 8 11 16 20 22 23
13 14 14 14 14 15 15 15 16 17 16 16 15 15 14 14 13 13 13 13 13 13 12 12 12 13 12 12 12 11 11 10 10 6 6 10 15 17 21 25 30 32 24 19 20 17 13 12 14 11 6 4 3 3 3 2 2 2 2 1 4 6 4 2 4 5 6 7 9 8 5 5 5 2 2 4 5 8 8 7 9 9 11 13 16 19 21 22
15 15 15 16 16 16 16 17 18 19 17 16 16 15 14 14 13 13 13 13 13 12 12 12 12 13 11 11 10 9 8 9 4 3 4 6 19 20 24 28 31 30 20 16 16 12 11 12 13 10 5 3 3 3 3 3 2 1 2 3 5 5 5 4 4 6 7 7 8 7 6 6 4 3 4 4 5 7 8 8 10 10 13 15 16 19 21 21
15 16 16 17 17 17 18 19 20 19 18 17 17 16 15 14 14 13 13 13 13 12 12 11 12 12 10 10 7 6 6 5 3 6 8 3 21 24 26 31 31 26 18 16 15 11 11 12 11 8 5 3 3 3 2 3 3 3 4 4 5 6 6 7 7 7 6 6 7 7 7 5 2 4 5 6 6 3 3 7 9 9 12 16 17 18 19 20
14 15 16 17 17 17 18 20 20 18 18 18 18 17 16 15 14 13 12 12 12 11 11 11 11 11 8 8 5 3 6 2 5 6 11 3 22 26 29 32 30 22 17 17 15 13 12 11 10 7 5 3 3 3 1 3 3 4 4 4 6 7 8 9 9 7 6 7 7 6 6 5 5 6 5 7 8 2 2 2 6 9 12 16 18 18 18 19
14 16 16 17 17 18 19 19 19 19 20 19 18 17 16 14 14 13 12 11 11 11 11 10 11 9 7 5 3 4 8 3 6 9 11 8 23 26 31 31 27 21 18 19 15 13 12 11 10 5 4 3 2 3 1 2 4 5 5 6 7 8 10 10 10 9 7 8 7 5 4 5 7 5 3 6 8 5 0 1 4 9 13 16 17 18 18 19
16 16 17 17 17 19 19 19 19 19 20 20 18 17 15 14 13 12 11 11 10 10 10 9 9 6 6 4 4 5 6 3 7 9 6 15 26 28 31 27 24 20 19 19 15 13 11 11 10 5 4 3 1 2 1 3 6 7 7 8 9 9 10 11 10 9 7 6 4 4 6 7 7 5 4 7 7 5 3 2 6 10 12 15 16 17 17 17
17 17 17 18 19 20 19 18 20 19 19 20 18 17 16 15 15 13 11 10 10 10 9 9 7 3 4 3 6 5 2 6 7 4 3 20 28 29 29 24 23 20 19 18 15 14 11 9 10 5 3 2 2 2 2 3 3 5 8 10 11 12 11 11 10 7 5 3 2 4 6 6 4 4 6 8 7 5 5 5 8 11 13 14 14 15 16 17
18 18 18 19 20 21 20 19 20 19 19 19 18 19 18 17 15 12 10 9 9 9 8 8 4 2 2 5 7 3 4 7 6 2 11 23 29 30 27 23 24 21 19 17 14 14 9 7 8 4 4 2 2 3 3 4 3 4 10 12 13 13 10 8 6 3 3 2 2 5 5 3 2 3 5 5 6 6 7 7 9 12 13 12 10 11 13 16
19 19 20 21 22 22 20 21 20 19 19 18 19 20 18 16 12 10 10 8 8 7 7 6 2 1 4 6 7 1 6 7 4 6 16 24 28 28 23 20 22 19 17 15 13 13 7 4 5 3 3 2 3 5 4 5 6 8 12 12 12 10 5 4 3 2 3 2 2 5 6 3 4 5 3 4 5 7 8 9 10 12 13 11 8 8 10 13
19 20 20 22 23 22 21 22 20 20 20 19 20 18 14 13 9 8 8 7 6 6 5 2 1 1 5 7 6 3 7 7 1 9 17 22 25 21 16 16 17 15 14 12 12 12 7 3 6 6 2 2 4 5 3 5 9 11 11 11 11 7 3 3 2 4 4 1 1 4 6 5 6 4 2 4 5 7 9 10 11 11 11 10 8 8 8 11
20 20 21 22 23 22 22 22 20 20 20 18 19 16 12 11 9 8 6 6 5 2 1 0 1 2 6 5 1 4 6 4 5 13 18 21 20 14 11 13 13 10 10 10 10 10 7 3 5 8 5 5 6 5 6 9 11 11 8 7 8 4 5 5 4 5 5 1 0 5 4 1 3 3 4 5 5 8 10 11 12 10 8 8 8 7 9 12
20 21 22 23 22 22 22 21 20 20 19 18 17 15 13 10 8 6 4 2 1 2 3 1 1 3 6 1 4 3 3 5 10 16 19 20 17 13 12 12 10 7 5 7 8 8 7 4 5 7 6 6 6 7 10 10 8 7 6 4 5 4 3 8 6 6 4 2 2 5 4 4 4 3 4 5 6 8 10 11 13 11 9 9 9 9 11 12
20 22 23 24 23 22 22 20 20 18 18 18 17 15 11 7 4 3 2 2 3 5 4 1 3 4 5 2 5 4 5 9 12 15 17 19 17 14 15 13 9 8 5 4 6 6 7 7 7 7 6 5 7 8 9 7 5 5 5 2 3 4 1 7 8 5 2 3 3 5 5 5 5 4 3 5 6 8 10 11 12 12 13 13 12 12 11 12
21 23 24 24 23 22 21 20 19 18 18 17 13 8 4 3 3 3 5 5 4 5 3 3 4 5 5 2 5 3 6 8 11 13 14 16 14 13 16 12 8 8 6 4 4 5 7 8 7 7 7 6 7 7 6 5 4 3 3 3 3 5 4 2 8 7 2 3 4 4 5 6 4 3 3 6 6 8 9 10 12 13 14 14 13 12 10 11
23 24 25 25 24 21 20 19 18 17 14 10 5 2 4 6 7 7 8 6 3 3 3 3 2 5 3 2 3 4 6 8 12 13 12 12 10 13 16 11 8 8 7 5 4 5 7 7 7 6 7 7 6 5 5 3 2 1 3 4 5 6 6 3 4 6 5 3 4 5 6 6 4 3 2 6 6 8 9 10 13 12 12 13 12 11 9 11
23 24 24 25 24 21 19 18 16 13 8 4 3 8 9 9 10 7 6 5 3 4 5 4 3 5 3 4 3 4 7 10 14 12 11 11 10 14 15 9 8 9 7 6 6 6 6 6 6 5 6 6 5 5 4 1 3 5 6 6 7 7 7 7 4 2 4 5 5 5 6 5 3 2 1 6 6 8 9 9 12 13 13 13 13 11 11 13
24 24 25 25 24 20 18 16 13 7 5 8 9 13 12 9 7 3 4 5 5 3 1 4 5 2 4 8 5 7 7 10 14 12 11 11 11 12 11 8 9 9 7 6 7 8 6 5 6 6 6 6 6 6 6 5 8 9 9 8 8 8 7 9 7 3 1 6 6 5 6 4 2 1 2 5 7 8 9 9 9 11 13 12 12 12 13 14
26 26 25 24 23 19 16 14 9 2 10 10 7 7 5 3 3 4 6 6 7 3 3 3 4 1 6 8 6 7 9 10 10 11 12 12 13 12 9 9 9 8 7 5 6 8 6 6 7 7 5 4 5 6 7 9 9 10 9 8 9 9 7 8 7 3 1 6 5 3 6 5 2 1 3 5 7 8 10 11 10 10 12 12 14 15 14 13
27 27 25 24 22 18 15 12 6 3 10 9 3 5 1 3 1 1 2 7 8 5 3 1 3 3 1 3 4 5 5 7 8 11 13 12 12 11 8 9 8 7 8 6 4 5 6 7 9 9 5 2 3 5 6 8 9 9 8 8 8 7 8 8 6 2 1 4 3 2 6 5 2 1 3 6 7 8 10 12 12 13 14 14 15 16 14 13
28 27 26 23 21 18 15 10 3 4 9 7 5 7 4 6 3 4 3 3 5 5 6 5 5 6 3 2 1 0 3 7 10 11 13 12 12 9 7 8 8 6 8 8 4 5 7 10 10 8 4 3 6 6 7 9 9 8 7 7 6 5 9 6 2 4 2 3 4 2 6 4 3 2 2 7 7 7 9 11 11 14 14 12 12 14 14 15
29 28 26 23 20 17 13 8 2 4 9 8 7 6 4 4 2 3 6 4 4 5 6 7 7 6 6 4 4 5 7 9 10 11 13 13 11 7 6 9 8 5 7 10 8 7 6 5 6 6 5 6 8 8 8 8 7 6 6 6 5 7 10 5 2 2 2 4 5 6 7 3 5 4 3 6 6 6 7 8 9 12 12 12 14 15 16 17
30 29 26 22 19 16 10 5 2 4 8 10 11 9 4 4 5 5 5 4 3 5 3 4 5 6 5 3 7 11 8 6 8 11 14 13 9 6 7 8 8 6 7 10 12 11 6 3 3 2 5 7 8 7 7 6 5 6 6 5 7 9 11 10 5 5 6 6 5 7 7 3 5 6 5 5 6 6 7 8 8 10 9 10 15 17 16 16
31 30 26 21 18 12 6 3 3 5 6 8 10 9 6 5 6 5 5 4 4 4 3 4 3 5 5 4 8 9 6 6 6 11 15 13 10 7 5 5 6 7 8 11 12 11 8 4 3 1 3 5 6 5 5 5 5 5 2 3 9 12 13 13 9 7 7 3 5 5 6 1 6 7 5 5 7 7 7 8 9 10 10 9 13 16 16 15
33 31 25 20 17 7 1 1 4 5 6 7 5 5 6 6 4 4 5 3 5 5 4 5 3 6 8 7 9 7 6 7 6 12 16 13 10 6 5 5 4 7 7 8 8 7 8 6 6 6 5 6 6 6 6 5 6 4 2 5 11 13 13 13 9 6 6 4 2 4 6 2 4 7 7 7 8 9 8 7 8 11 12 11 12 14 15 15
35 32 25 19 14 3 1 1 4 5 4 4 4 3 5 5 5 5 5 3 5 3 4 3 1 6 6 7 11 7 5 9 9 12 14 13 12 6 6 6 5 6 4 4 5 4 8 10 9 10 10 8 7 6 3 4 7 4 4 8 12 13 12 11 8 5 5 7 2 6 5 5 2 5 8 9 9 10 10 10 9 11 13 14 13 14 14 14
37 33 25 18 13 7 7 2 3 5 1 4 3 5 4 5 8 4 6 2 5 1 3 4 2 3 2 7 12 6 3 11 10 11 14 15 13 7 7 8 6 7 6 7 6 3 5 9 8 8 9 7 5 4 3 5 8 5 7 11 12 11 11 8 6 5 4 6 3 4 3 6 1 5 8 10 10 10 13 15 13 12 14 15 14 14 14 15
39 33 25 17 10 8 12 7 6 5 2 2 2 3 3 9 6 5 5 1 4 2 3 4 3 5 5 8 9 5 5 8 4 9 15 14 11 6 6 6 7 7 7 10 10 3 4 3 1 3 5 4 3 4 6 7 8 7 10 13 11 9 8 6 6 5 4 5 4 2 1 6 3 5 7 8 9 11 12 14 15 14 13 14 15 15 15 15
38 31 22 12 4 5 10 10 10 7 6 3 2 2 7 7 4 6 3 3 3 3 4 3 5 7 10 10 8 6 8 5 4 11 12 9 11 8 5 3 6 8 7 10 13 9 4 2 3 6 6 5 6 7 9 9 9 10 11 11 9 7 6 5 4 4 5 4 3 4 2 6 4 3 7 7 7 10 11 13 15 16 14 15 15 15 15 15
36 27 16 6 4 7 6 6 7 9 8 3 1 5 7 4 5 4 3 3 2 6 6 6 6 9 12 11 7 7 8 7 9 13 10 7 10 10 6 5 5 6 6 8 11 11 11 9 7 9 8 7 9 10 10 10 9 9 9 7 7 5 5 5 4 3 5 2 3 5 5 5 5 1 3 6 6 8 13 15 18 19 16 15 15 14 16 16
32 19 9 4 6 11 6 2 7 11 7 3 3 6 5 4 4 1 5 2 3 6 6 6 8 9 12 10 6 8 8 7 10 12 10 9 9 8 9 7 5 7 7 7 8 9 10 10 10 10 9 9 9 8 8 8 7 6 7 6 5 5 4 4 3 3 4 3 3 5 6 5 5 2 2 4 6 9 13 15 19 20 19 17 17 16 16 15
25 11 4 2 6 12 6 3 10 9 4 4 5 5 6 4 1 4 4 3 3 4 3 6 9 9 11 9 6 8 7 7 10 11 10 10 9 9 11 9 6 7 5 5 7 7 7 9 12 11 8 9 10 8 5 5 4 5 5 5 4 5 5 4 4 4 4 2 2 2 3 5 4 2 4 2 4 9 14 17 19 20 20 19 18 17 15 16
16 5 4 4 4 9 7 7 9 4 3 6 5 5 6 1 3 2 2 4 5 4 3 6 9 9 10 8 7 9 5 6 9 9 9 10 8 8 11 10 9 8 5 4 5 5 7 6 8 9 5 6 10 10 7 6 6 5 5 5 5 5 5 5 4 5 5 6 5 1 2 7 5 3 4 3 2 7 14 17 17 17 16 16 16 16 15 15
8 4 6 5 3 3 6 7 8 5 4 6 6 5 3 2 4 2 3 5 4 5 5 7 8 9 9 5 6 8 4 3 8 8 7 9 7 7 8 9 11 9 7 5 3 3 7 5 4 5 2 2 7 8 7 8 7 4 4 5 5 4 4 5 6 6 7 8 6 1 3 6 3 4 3 2 1 6 14 17 17 16 15 14 14 15 15 15
3 2 3 2 1 1 5 6 7 5 5 6 6 2 1 3 2 2 3 2 1 4 7 8 8 8 8 5 6 9 5 2 7 7 6 7 7 7 7 7 11 13 9 6 3 3 6 4 4 5 4 6 8 6 5 7 4 1 4 4 2 4 6 7 6 5 7 6 4 3 5 6 2 4 5 5 4 8 14 17 18 18 17 16 15 15 16 16
1 2 1 3 2 2 3 6 6 5 6 6 4 1 3 3 4 4 2 0 0 4 7 7 6 6 6 6 7 10 8 5 7 7 5 6 6 8 9 7 9 13 12 8 5 3 4 4 3 5 8 7 6 6 7 9 7 5 3 2 3 4 5 5 5 4 5 5 4 5 7 7 5 3 4 6 7 11 14 16 18 19 19 18 16 16 16 16
4 4 2 5 5 3 4 4 4 5 6 5 1 2 1 2 4 4 2 0 2 5 7 4 4 5 6 6 7 10 9 6 7 7 5 5 4 5 9 9 8 11 13 11 8 2 2 6 4 6 7 3 5 7 9 10 10 9 6 5 5 6 4 2 4 5 5 5 4 6 8 6 6 7 5 4 6 11 14 16 18 19 19 17 16 17 17 15
5 5 2 4 4 2 3 3 5 6 5 4 1 3 1 2 3 3 2 1 3 5 5 1 2 4 5 4 6 10 10 8 7 6 5 5 4 3 6 7 8 11 13 12 9 3 2 6 3 5 3 2 4 7 8 8 10 9 8 5 5 5 4 4 4 5 5 5 4 6 7 5 7 8 9 9 4 9 14 15 16 18 18 16 15 15 15 15
5 4 2 3 3 3 5 5 5 6 4 2 1 2 1 2 3 3 1 2 5 4 2 1 3 4 4 4 4 7 10 9 6 5 5 5 4 4 5 6 7 9 12 13 10 6 4 5 4 2 4 4 6 7 8 6 5 7 6 6 6 4 3 4 5 4 5 5 4 5 5 4 7 7 8 11 6 6 13 14 14 14 15 14 13 14 13 13
4 3 3 3 3 4 5 5 4 4 2 1 1 2 2 3 4 3 2 2 4 3 2 2 0 2 4 4 4 6 7 8 7 6 5 5 6 3 4 5 5 7 10 11 9 7 5 4 6 5 4 6 6 5 4 5 4 3 4 4 5 4 3 5 5 4 4 4 5 5 6 5 6 6 7 9 6 3 11 14 13 14 13 11 11 13 13 12
5 2 4 3 2 3 5 5 2 2 2 1 1 1 2 4 4 4 3 1 3 2 2 2 1 1 3 2 2 5 6 6 7 7 5 5 6 3 3 3 5 7 8 7 8 8 6 4 6 7 5 7 6 3 3 6 7 8 7 7 7 5 5 5 4 3 3 3 3 5 5 3 5 4 6 7 6 4 10 13 13 14 13 9 11 14 14 13
3 1 4 2 2 3 6 3 3 3 1 2 2 2 1 2 3 3 3 2 0 1 2 2 0 0 1 1 1 6 6 4 5 6 5 5 5 2 4 5 6 7 7 6 6 7 5 5 6 6 6 7 9 7 4 4 6 9 8 8 9 7 6 6 5 4 4 4 3 4 4 2 5 4 5 5 5 5 9 13 14 14 13 13 14 13 13 14
1 1 3 1 1 3 5 2 2 2 2 1 1 1 2 1 3 4 4 5 4 1 0 1 1 1 2 0 1 4 4 2 3 4 3 3 2 2 3 6 7 8 8 4 3 6 5 5 6 5 5 6 8 8 6 5 6 8 5 4 7 9 8 7 5 4 5 6 5 5 4 3 5 3 3 4 5 6 8 12 15 14 13 14 14 12 12 13
2 1 2 2 2 3 3 2 2 0 2 2 1 2 1 2 2 4 4 5 6 4 2 2 1 2 2 1 1 3 2 2 1 2 2 2 4 4 2 5 5 9 9 2 0 5 5 4 5 6 6 6 6 5 4 3 5 5 2 2 5 8 9 7 4 5 5 4 4 5 5 5 4 3 4 5 5 6 7 11 13 13 13 13 13 13 13 13
2 2 2 3 3 2 0 2 3 2 1 1 1 2 2 2 4 2 3 3 6 6 4 3 1 1 1 1 2 5 2 1 2 2 2 2 4 4 3 4 4 8 7 2 4 7 4 4 7 8 8 4 2 2 2 3 4 2 1 3 4 6 8 8 5 4 4 4 3 3 3 5 6 7 7 6 3 5 7 9 11 11 12 12 11 12 12 12
2 1 0 1 2 2 2 1 1 1 1 2 1 1 2 0 2 1 2 3 4 5 3 4 3 0 1 1 2 3 3 3 4 3 3 2 3 5 5 3 2 3 4 6 10 8 4 6 9 11 11 9 7 6 3 4 7 6 6 6 5 5 7 9 7 4 3 5 4 1 2 4 7 9 8 6 3 2 6 8 10 10 11 11 11 11 12 12
1 1 2 2 2 1 2 1 2 1 1 1 1 1 1 0 1 2 3 2 3 4 2 3 6 6 5 2 1 1 2 3 4 4 4 3 1 3 6 3 3 3 5 9 10 7 5 6 7 8 11 10 9 8 5 5 7 7 7 7 5 6 8 9 9 6 5 6 4 3 4 7 8 7 6 6 5 3 4 7 8 9 10 11 12 13 13 13
1 0 1 1 2 1 2 2 3 2 1 1 1 1 1 2 3 3 3 2 1 4 5 3 6 7 6 4 2 2 3 2 3 5 6 5 4 2 2 2 4 4 4 7 7 4 4 3 2 4 8 8 9 8 6 7 7 6 6 6 5 6 7 8 8 6 5 7 7 5 7 8 6 5 7 7 5 2 5 7 8 9 10 11 11 12 13 13
2 2 2 2 2 1 1 1 2 3 1 1 1 1 2 3 4 4 3 4 2 4 6 5 6 6 6 7 6 6 6 6 3 4 7 6 4 4 3 2 4 5 3 5 6 4 3 2 0 3 7 7 6 5 5 6 6 5 4 4 4 6 7 7 6 4 4 6 6 6 7 4 3 4 7 6 3 1 5 8 8 8 9 10 8 9 10 11
4 3 3 4 2 0 1 1 2 3 2 2 1 1 1 2 5 3 2 4 5 5 6 7 6 3 1 5 8 7 7 7 6 6 8 7 5 4 3 3 5 6 2 2 4 5 5 4 2 4 7 4 4 5 6 5 5 6 5 2 2 4 4 3 3 3 4 5 5 5 4 2 2 5 7 4 1 4 7 10 9 9 10 10 9 8 9 10
5 1 2 4 1 1 2 2 2 3 1 1 2 2 1 2 4 4 1 2 3 5 7 7 7 4 1 4 8 9 9 9 10 9 8 7 7 7 6 6 7 6 3 2 2 3 4 5 4 5 6 4 5 4 5 5 5 7 5 2 2 2 2 2 2 0 1 4 5 3 3 4 6 7 6 2 3 6 8 9 9 10 11 12 11 9 9 10
Wind_Direction
348 341 342 343 338 336 334 334 332 331 329 329 331 329 328 328 328 329 329 332 334 331 333 333 333 335 332 334 329 326 338 333 309 261 243 242 213 200 189 175 159 152 155 156 155 156 160 166 159 161 169 173 207 169 174 220 240 241 252 304 35 34 36 19 350 355 334 324 355 344 313 316 330 74 132 156 187 165 161 172 158 167 144 106 130 140 145 149
341 336 341 341 335 334 333 332 330 329 326 324 325 326 326 325 325 326 325 328 331 330 332 331 332 333 331 332 328 330 340 316 282 259 249 247 215 193 183 175 162 158 161 161 163 165 164 163 160 167 174 182 196 180 198 200 222 250 284 344 42 27 30 8 330 339 319 316 329 309 300 306 313 358 147 199 187 171 182 174 166 171 147 129 139 145 149 153
344 342 343 341 337 335 333 331 330 328 324 321 321 322 322 322 322 322 322 324 327 329 328 330 331 330 330 330 327 334 335 300 266 250 252 231 204 188 179 178 168 162 164 167 169 169 166 158 161 171 181 192 178 178 216 204 215 253 280 334 51 13 353 351 312 312 314 313 309 302 301 288 294 320 193 221 200 188 202 181 171 178 157 147 150 151 154 158
351 347 345 342 339 338 335 333 330 328 327 324 321 317 316 318 319 319 320 319 322 326 325 329 328 326 331 328 330 342 314 278 250 97 25 212 192 184 177 177 171 166 168 171 170 172 168 156 163 181 194 194 170 189 228 205 215 283 264 318 19 351 329 347 324 304 308 305 302 307 294 283 291 266 231 243 225 197 202 189 179 181 161 154 156 157 159 161
347 344 342 338 336 337 334 330 327 327 327 324 322 318 314 313 315 316 315 316 318 322 323 323 325 326 332 332 344 351 284 253 81 59 356 229 183 178 175 176 172 168 172 172 167 171 169 162 169 188 210 201 176 199 220 201 237 275 245 286 330 319 314 325 322 307 303 296 293 296 286 292 305 248 243 250 244 208 189 188 184 180 163 160 162 160 162 165
342 340 337 334 333 334 329 326 326 327 324 319 317 314 310 310 312 313 312 314 314 317 321 320 324 326 334 346 357 320 262 280 52 9 344 198 177 174 173 174 170 168 174 171 167 171 169 172 182 189 212 218 201 210 206 180 225 272 257 278 308 308 299 303 309 299 289 286 286 292 292 288 276 259 245 243 247 255 36 165 183 179 167 165 165 164 167 170
342 338 335 334 332 329 326 326 328 326 320 314 312 311 310 311 309 311 310 311 312 314 317 318 322 328 347 356 332 253 249 318 32 346 343 166 171 170 169 169 167 170 177 174 172 176 172 181 194 193 206 223 225 226 263 206 220 258 282 297 306 303 291 296 303 296 291 288 288 290 281 261 260 270 248 238 245 235 100 67 179 181 168 164 168 170 171 173
340 336 335 333 329 325 326 329 327 323 318 315 315 313 312 310 306 307 308 306 309 311 312 319 321 334 7 346 288 246 231 3 18 336 336 159 164 164 164 165 171 176 180 180 177 178 178 188 197 195 211 229 236 223 262 260 232 239 279 301 304 301 293 299 299 296 298 293 287 258 252 252 255 277 266 244 242 216 188 169 173 178 164 163 176 176 174 175
337 336 335 331 326 325 329 329 324 321 317 316 316 312 310 307 301 300 304 303 303 308 310 315 319 356 23 322 278 257 177 27 9 333 154 156 158 160 162 167 177 181 183 185 183 182 184 193 197 203 251 257 233 247 255 268 241 232 281 300 301 299 299 302 299 298 296 284 266 238 245 251 249 271 255 234 226 198 185 179 172 175 162 166 181 177 178 178
336 335 333 329 325 327 331 326 323 321 316 315 313 308 305 302 298 295 298 298 298 304 308 310 331 45 344 278 260 245 88 25 358 137 156 157 157 162 168 173 178 183 186 186 188 189 193 205 200 213 288 292 246 261 249 270 296 280 287 295 293 292 296 298 297 297 280 257 245 249 264 257 165 239 240 195 197 190 183 179 173 178 167 169 175 171 188 184
336 334 331 328 328 331 329 323 324 322 317 314 308 304 301 300 300 295 292 293 294 297 303 311 9 65 291 268 250 247 56 8 346 152 162 160 160 167 173 177 178 185 186 184 191 193 203 218 198 212 268 286 275 268 254 268 290 291 291 294 289 283 280 277 262 232 238 231 240 266 280 244 171 230 242 141 166 179 185 181 175 182 170 166 169 170 203 195
334 333 329 327 329 331 325 324 326 321 316 311 306 304 301 302 298 291 291 288 287 291 300 308 88 12 281 253 247 320 8 352 27 152 163 162 164 169 171 175 180 189 189 188 192 192 206 214 209 227 252 309 295 286 289 290 284 284 285 290 290 271 206 218 203 187 221 229 269 281 279 222 190 218 203 153 166 174 186 185 179 181 162 159 171 177 210 204
333 330 327 328 330 328 324 325 324 317 315 310 306 303 298 299 290 281 281 276 279 285 327 111 115 297 272 249 175 349 350 8 130 148 157 161 163 164 166 169 175 191 200 200 193 190 206 209 226 248 280 288 286 311 312 291 280 279 277 278 288 272 179 186 175 177 205 128 171 279 306 141 160 166 158 165 178 182 185 187 184 170 152 160 170 187 205 201
333 329 329 331 330 326 324 322 318 315 313 308 303 298 295 293 280 263 256 262 229 138 111 111 197 251 262 251 69 360 9 100 137 145 152 158 156 154 157 159 165 175 186 199 192 191 209 224 250 264 274 268 278 303 293 277 267 270 275 253 268 310 152 174 179 183 196 133 196 265 311 30 68 113 154 168 182 193 187 186 183 164 160 172 175 194 198 193
332 332 333 331 329 327 325 321 318 317 312 306 301 296 289 275 250 229 200 151 136 127 111 175 215 243 256 179 81 46 95 124 140 144 152 158 152 153 158 155 156 160 156 169 181 196 219 232 248 260 260 247 261 280 281 275 255 250 274 256 256 323 83 164 175 194 206 137 200 262 310 1 51 90 141 167 184 199 194 185 181 172 172 174 177 190 189 189
334 335 333 330 330 329 327 325 323 319 311 306 303 300 276 192 148 142 130 130 143 125 131 210 207 245 275 128 102 95 127 138 141 143 156 163 161 159 157 154 152 162 164 154 171 203 213 225 240 257 268 257 253 269 283 274 229 205 273 313 315 325 339 153 169 191 195 153 202 237 295 341 37 67 123 171 190 200 201 186 180 180 174 172 179 184 187 191
336 334 332 331 332 331 330 328 324 319 316 315 318 72 119 127 125 122 114 115 128 147 202 253 221 240 274 93 136 159 140 135 141 144 152 164 167 155 153 156 160 166 177 176 194 209 198 209 228 240 247 245 251 268 274 259 197 206 310 319 321 324 325 337 152 177 193 226 257 228 258 315 4 25 126 170 190 198 202 190 181 179 171 174 179 177 190 196
337 334 334 335 334 333 330 328 328 327 334 7 95 113 113 114 111 111 112 119 153 186 224 252 241 245 207 157 156 118 118 137 149 146 144 154 155 154 159 164 161 165 184 202 209 207 197 200 220 236 230 223 234 249 246 293 345 326 330 326 319 324 324 332 1 138 195 257 283 252 262 301 341 356 134 163 181 198 198 189 184 177 171 178 179 177 190 194
339 337 337 336 334 333 330 330 335 346 69 91 107 110 105 106 110 137 165 169 194 200 217 185 201 287 117 135 107 85 107 135 150 150 146 151 152 156 163 164 166 175 187 196 189 192 206 207 215 235 234 221 221 233 254 302 324 319 320 312 309 315 313 323 346 49 278 284 271 260 286 306 316 3 131 162 174 193 193 183 191 181 170 175 182 183 185 188
342 342 338 335 333 332 329 331 341 71 119 108 116 130 124 142 163 172 178 203 232 285 17 142 182 12 98 108 90 103 124 137 155 161 155 154 154 153 155 161 169 188 203 194 168 182 214 229 225 231 230 227 231 237 264 291 303 306 306 302 302 304 307 322 342 35 337 294 283 270 290 291 288 79 135 162 172 187 191 180 188 187 171 176 190 187 180 184
344 343 339 335 332 331 328 330 342 164 152 136 190 232 295 331 310 85 165 210 221 240 270 247 284 297 91 79 81 111 140 159 165 167 164 164 165 160 155 168 176 190 204 202 164 168 209 236 236 237 239 231 244 257 272 284 290 293 295 298 298 304 320 332 347 46 147 289 309 272 280 275 210 155 139 163 180 188 192 183 184 190 178 179 191 184 176 185
345 343 339 335 331 329 327 323 327 192 178 168 235 257 327 0 4 6 318 230 177 206 233 230 269 278 249 240 201 294 227 172 159 164 169 177 187 184 167 183 204 193 182 195 195 178 209 240 242 244 259 228 236 258 268 275 282 286 287 290 295 322 331 332 106 122 164 287 317 287 285 282 157 186 168 173 192 188 192 191 187 192 180 174 189 183 179 187
345 343 339 335 329 327 324 317 311 196 194 208 248 260 320 354 327 320 295 275 133 161 207 207 231 231 201 208 191 204 208 173 163 163 169 184 196 200 182 190 215 202 178 198 213 214 212 237 256 249 237 234 243 248 259 270 271 275 282 287 306 336 333 328 111 128 240 263 298 297 284 257 149 175 185 183 191 172 184 197 197 200 181 172 190 188 183 186
345 342 338 333 327 324 321 320 294 218 205 226 250 257 288 307 283 288 280 273 127 139 186 191 221 219 193 164 167 190 197 179 178 162 170 190 188 187 200 202 216 214 207 213 221 238 237 91 37 265 196 226 249 238 245 267 265 269 275 290 322 332 324 317 321 309 273 235 243 281 278 216 168 186 177 168 176 165 177 191 207 211 182 175 196 190 185 186
345 341 337 330 325 325 323 307 238 212 205 230 250 246 254 283 275 265 265 252 130 124 162 169 212 211 169 138 170 191 189 181 185 157 168 192 184 172 197 209 226 220 215 221 225 244 248 169 157 214 165 214 242 237 251 279 282 275 277 337 329 321 315 311 310 300 288 232 183 271 301 153 165 194 178 162 180 176 176 188 204 202 182 191 204 190 186 187
344 340 336 326 324 333 349 266 184 182 210 224 233 219 241 277 252 221 257 231 132 123 158 167 185 168 164 169 171 183 190 180 168 154 167 191 193 192 213 189 216 244 230 225 231 247 251 229 225 252 259 250 249 250 258 275 280 278 54 354 321 314 313 313 308 287 301 338 156 236 301 340 169 193 176 168 190 184 175 193 206 196 185 197 205 189 188 190
343 339 334 323 318 293 197 346 161 185 225 189 176 226 264 262 195 185 247 195 126 122 155 151 142 149 162 174 170 186 177 140 140 160 172 189 191 204 235 196 195 243 241 223 233 226 232 237 239 250 257 253 249 248 250 272 276 295 17 335 317 317 317 317 310 280 302 326 239 202 270 296 236 175 163 165 189 192 187 197 202 196 190 195 200 190 190 195
342 340 333 320 308 242 212 248 197 215 251 119 176 279 273 197 176 199 256 166 107 140 151 110 94 148 151 164 181 225 131 136 155 172 175 188 194 202 230 222 219 226 205 211 225 164 195 229 233 246 251 237 234 253 285 285 274 300 343 321 311 310 308 309 300 288 307 313 282 174 232 287 302 139 161 170 187 200 199 199 196 196 193 191 199 194 190 199
342 340 331 319 305 228 203 211 231 225 179 158 277 308 185 178 185 238 261 108 112 191 139 110 142 167 161 160 187 230 168 170 181 155 167 189 204 228 252 234 235 231 202 219 237 191 157 209 250 272 259 235 251 280 281 279 276 302 318 304 292 282 285 292 289 301 300 282 316 55 220 299 341 144 173 184 198 207 199 196 193 194 195 190 198 197 192 200
342 337 328 317 287 209 199 209 225 209 186 215 341 129 175 181 226 245 202 108 149 154 119 155 165 157 164 164 176 190 173 170 116 141 166 186 194 221 268 240 233 238 212 219 242 252 241 241 266 262 259 266 284 284 276 274 277 293 297 290 286 271 263 275 278 299 289 258 351 13 305 299 312 169 180 187 203 204 187 183 186 190 195 191 194 197 194 198
341 334 324 300 190 175 184 195 208 198 192 225 124 180 200 207 249 255 102 90 163 142 144 173 157 155 174 174 162 168 169 148 138 156 168 176 187 205 223 208 213 228 220 216 231 245 247 245 246 242 239 253 268 270 267 263 262 276 282 281 293 281 248 255 246 243 281 317 28 351 323 289 280 278 177 177 183 188 179 178 180 184 191 190 191 195 194 197
340 333 321 287 186 176 185 166 182 191 193 220 205 208 237 223 219 67 96 149 180 157 168 167 158 170 183 183 155 154 165 147 157 173 172 181 192 198 212 208 187 203 218 219 216 222 232 236 237 234 227 230 250 267 260 245 240 252 265 271 285 285 262 262 262 256 287 340 13 337 330 286 264 334 51 162 171 177 175 174 175 178 185 186 188 193 192 195
342 338 346 336 176 178 191 156 167 179 187 224 220 228 255 234 128 65 114 172 136 140 158 151 163 174 179 184 157 154 167 145 164 185 182 191 199 195 212 217 208 224 231 215 216 218 223 224 225 230 226 211 229 256 252 229 229 237 257 279 285 294 297 287 288 297 296 324 4 352 322 297 290 15 25 46 159 173 170 171 173 176 183 184 184 188 187 191
348 5 42 58 147 177 191 174 173 187 225 225 231 241 249 211 93 84 119 103 105 134 143 148 161 168 180 189 156 163 182 142 163 189 185 194 209 201 208 210 213 239 251 225 225 230 234 223 204 214 213 189 214 239 258 274 272 256 269 291 285 287 299 301 305 317 318 320 332 49 282 313 339 36 24 34 126 172 165 164 166 170 181 182 181 184 184 188
359 56 58 70 80 164 199 197 198 223 236 235 251 250 245 89 107 145 87 89 123 151 148 158 169 170 181 191 161 181 230 162 171 193 192 197 213 208 206 202 201 220 241 235 214 221 248 251 183 193 205 211 227 230 245 267 267 257 260 261 274 304 304 291 297 307 308 308 315 308 296 320 15 89 84 81 168 174 158 155 158 163 173 178 183 186 183 187
25 79 54 103 33 314 219 198 191 215 242 253 262 248 72 51 53 48 68 92 158 153 152 165 183 184 176 176 175 190 228 212 178 191 198 203 217 220 219 205 196 206 223 234 212 207 242 238 156 179 215 225 239 240 226 244 262 259 239 244 297 330 306 289 285 280 278 286 307 322 327 338 20 103 106 101 124 153 155 156 160 164 171 180 189 190 185 186
329 235 77 109 6 336 192 175 182 225 249 262 284 29 59 39 35 36 53 124 138 172 173 167 181 204 186 176 185 186 191 191 186 196 196 193 209 216 217 217 203 206 213 229 248 229 243 257 183 213 235 205 212 258 245 240 261 261 249 341 341 272 264 286 291 284 285 298 319 333 344 352 356 31 94 105 120 143 158 164 164 168 175 181 190 192 186 183
301 246 112 68 30 49 111 150 217 249 254 258 276 83 41 39 50 22 3 171 190 204 210 179 165 215 206 185 184 179 181 182 179 196 203 184 182 192 208 214 203 206 211 217 232 199 221 269 242 211 242 197 174 240 245 224 231 250 282 335 303 261 243 258 288 297 303 310 319 337 349 3 11 9 15 47 113 148 162 167 167 170 175 180 187 189 185 180
268 237 148 55 19 59 52 335 262 249 256 257 152 111 13 30 54 9 344 237 220 211 216 162 138 212 217 196 177 171 185 197 179 190 211 190 166 166 203 210 194 202 208 209 224 219 200 257 246 155 192 225 189 218 234 209 197 224 266 269 245 269 292 283 290 297 300 306 314 333 343 11 26 5 352 6 58 156 166 168 169 170 174 178 182 184 183 180
248 245 128 61 339 307 324 305 251 241 255 272 45 68 21 11 26 10 2 237 235 226 230 105 148 193 195 191 186 175 193 211 202 204 204 181 180 175 184 201 196 194 199 204 219 228 208 232 252 173 169 219 219 208 229 239 193 199 230 232 219 227 258 273 280 272 283 299 304 323 328 359 30 9 348 3 25 156 166 165 164 165 168 170 172 176 179 179
245 249 111 86 323 315 298 264 227 249 255 172 52 48 25 349 344 1 37 212 237 259 301 308 216 168 171 185 195 183 196 211 214 221 206 191 213 202 160 200 206 175 184 202 212 215 213 219 246 252 213 215 218 189 220 278 300 267 255 259 256 243 242 261 259 246 262 285 299 318 320 347 30 13 350 6 24 128 156 156 154 154 155 163 172 176 181 184
236 244 95 85 321 306 274 247 184 262 260 100 24 338 346 328 319 346 26 189 229 241 241 250 310 120 178 202 195 183 197 206 210 222 218 209 226 216 126 164 194 176 181 203 205 203 219 239 252 258 252 253 260 251 259 278 283 278 272 270 276 271 252 250 254 262 265 270 295 298 297 355 45 22 352 12 39 110 148 147 148 153 156 177 193 185 186 192
235 352 102 102 314 279 263 238 161 208 229 41 343 270 272 304 318 342 10 16 276 199 197 197 171 50 164 255 218 186 191 199 210 229 232 224 238 226 145 156 185 195 199 209 194 180 198 237 249 252 253 261 259 245 244 261 258 255 247 242 254 259 253 259 280 299 286 274 288 279 278 5 58 42 352 16 66 117 149 146 149 159 163 182 196 190 187 192
345 5 127 148 285 258 264 257 174 181 126 91 260 166 162 277 342 353 10 19 21 353 268 100 74 359 58 44 225 178 187 200 194 228 248 217 196 76 142 189 204 212 214 222 174 162 183 218 226 238 232 216 214 209 199 196 219 239 241 226 240 246 248 259 274 280 276 283 294 286 290 360 62 62 360 17 77 114 146 149 156 167 170 179 190 188 185 187
284 227 161 167 210 239 279 350 333 250 113 172 193 101 134 171 58 5 353 14 24 9 355 77 58 352 78 122 134 138 194 279 158 187 233 184 143 99 129 199 216 230 230 253 119 187 203 211 205 230 232 200 192 197 189 202 217 215 208 218 239 241 236 238 254 257 261 280 281 274 297 349 25 46 30 24 67 112 140 155 162 170 173 176 181 182 182 185
271 210 168 165 184 227 265 28 315 289 120 202 176 70 345 146 117 30 346 17 32 22 20 63 103 243 103 134 138 116 116 13 75 140 144 137 143 119 139 194 228 252 248 232 209 213 223 223 218 240 255 256 283 306 25 333 287 264 260 250 247 247 238 237 255 270 278 285 266 266 306 328 339 357 17 22 54 114 140 163 166 166 171 174 175 177 179 182
284 273 59 158 181 189 172 147 316 323 355 308 303 29 345 73 144 95 25 29 24 15 21 57 62 16 25 19 169 111 89 90 91 96 93 89 122 131 151 198 270 269 242 220 217 218 231 228 219 234 250 264 285 294 319 309 290 295 299 279 261 252 240 236 246 265 286 277 271 26 4 311 321 344 7 20 14 90 137 164 167 163 168 172 172 174 175 178
301 344 26 342 283 202 161 67 7 354 7 318 322 341 330 32 124 88 45 21 11 360 343 73 63 42 35 16 247 134 97 109 95 71 56 51 56 151 166 167 55 102 180 203 206 210 239 234 213 227 244 255 267 273 279 278 274 277 277 274 268 253 235 232 248 265 265 266 283 11 340 311 320 338 11 24 347 344 108 141 160 159 163 169 171 174 177 180
324 78 83 297 297 351 43 12 327 294 352 349 337 26 12 36 72 69 15 328 67 26 2 50 60 38 39 38 2 68 54 31 83 66 29 16 7 354 173 137 61 74 146 177 180 204 259 248 214 249 258 260 261 266 269 258 254 254 258 264 267 256 241 238 256 274 263 265 283 305 306 312 335 354 4 9 342 342 96 125 153 157 159 166 173 180 182 184
337 6 33 247 246 6 16 313 274 243 204 235 218 76 22 22 51 60 23 357 36 49 21 31 47 30 34 50 58 72 48 10 14 19 350 344 1 12 29 55 29 32 87 153 166 191 241 241 347 284 265 250 243 243 234 230 234 235 238 252 254 246 242 241 254 268 259 265 280 292 301 318 32 1 336 341 341 145 131 135 147 155 156 157 169 189 190 187
336 345 337 280 224 91 250 230 266 248 206 199 192 78 52 43 30 18 37 26 23 38 27 14 16 6 41 68 59 50 27 351 322 311 313 309 313 332 340 342 343 352 34 140 168 183 220 244 247 257 253 221 181 203 201 193 224 231 214 206 240 241 240 243 262 283 288 296 292 288 304 348 13 331 316 312 223 181 153 135 134 148 156 156 167 195 204 198
327 262 283 286 242 162 247 215 226 239 217 74 55 32 9 46 21 338 291 95 47 35 24 1 347 327 177 77 36 6 342 319 304 299 292 281 281 284 280 283 296 301 304 295 230 187 229 259 240 244 253 187 150 188 195 186 229 235 212 192 240 264 268 249 240 243 299 307 308 316 341 336 325 315 303 276 197 183 159 138 138 152 162 160 160 180 204 206